owner,sensor,date,latitude,longitude,air_temperature,qcFlag 
DISL,ioos:station:DISL:DISL:1,2014-01-01T06:30:00Z,30.2513,-88.0778,8.1,1111122 
DISL,ioos:station:DISL:DISL:1,2014-01-01T07:00:00Z,30.2513,-88.0778,8.03,1111122 
DISL,ioos:station:DISL:DISL:1,2014-01-01T07:30:00Z,30.2513,-88.0778,7.929,1111122 
DISL,ioos:station:DISL:DISL:1,2014-01-01T08:00:00Z,30.2513,-88.0778,8.03,1111122 
DISL,ioos:station:DISL:DISL:1,2014-01-01T08:30:00Z,30.2513,-88.0778,8.03,1111122 
DISL,ioos:station:DISL:DISL:1,2014-01-01T09:00:00Z,30.2513,-88.0778,8.07,1111122 
DISL,ioos:station:DISL:DISL:1,2014-01-01T09:30:00Z,30.2513,-88.0778,8.27,1111122 
DISL,ioos:station:DISL:DISL:1,2014-01-01T10:00:00Z,30.2513,-88.0778,8.27,1111122 
DISL,ioos:station:DISL:DISL:1,2014-01-01T10:30:00Z,30.2513,-88.0778,8.48,1111122 
DISL,ioos:station:DISL:DISL:1,2014-01-01T11:00:00Z,30.2513,-88.0778,8.82,1111122 
DISL,ioos:station:DISL:DISL:1,2014-01-01T11:30:00Z,30.2513,-88.0778,8.85,1111122 
DISL,ioos:station:DISL:DISL:1,2014-01-01T12:00:00Z,30.2513,-88.0778,8.92,1111122 
DISL,ioos:station:DISL:DISL:1,2014-01-01T12:30:00Z,30.2513,-88.0778,9.15,1111122 
DISL,ioos:station:DISL:DISL:1,2014-01-01T13:00:00Z,30.2513,-88.0778,9.18,1111122 
DISL,ioos:station:DISL:DISL:1,2014-01-01T13:30:00Z,30.2513,-88.0778,9.29,1111122 
DISL,ioos:station:DISL:DISL:1,2014-01-01T14:00:00Z,30.2513,-88.0778,9.36,1111122 
DISL,ioos:station:DISL:DISL:1,2014-01-01T14:30:00Z,30.2513,-88.0778,9.49,1111122 
DISL,ioos:station:DISL:DISL:1,2014-01-01T15:00:00Z,30.2513,-88.0778,9.73,1111122 
DISL,ioos:station:DISL:DISL:1,2014-01-01T15:30:00Z,30.2513,-88.0778,9.93,1111122 
DISL,ioos:station:DISL:DISL:1,2014-01-01T16:00:00Z,30.2513,-88.0778,9.92,1111122 
DISL,ioos:station:DISL:DISL:1,2014-01-01T16:30:00Z,30.2513,-88.0778,10.3,1111122 
DISL,ioos:station:DISL:DISL:1,2014-01-01T17:00:00Z,30.2513,-88.0778,10.58,1111122 
DISL,ioos:station:DISL:DISL:1,2014-01-01T17:30:00Z,30.2513,-88.0778,10.81,1111122 
DISL,ioos:station:DISL:DISL:1,2014-01-01T18:00:00Z,30.2513,-88.0778,11.14,1111122 
DISL,ioos:station:DISL:DISL:1,2014-01-01T18:30:00Z,30.2513,-88.0778,11.18,1111122 
DISL,ioos:station:DISL:DISL:1,2014-01-01T19:00:00Z,30.2513,-88.0778,11.21,1111122 
DISL,ioos:station:DISL:DISL:1,2014-01-01T19:30:00Z,30.2513,-88.0778,11.13,1111122 
DISL,ioos:station:DISL:DISL:1,2014-01-01T20:00:00Z,30.2513,-88.0778,11.85,1111122 
DISL,ioos:station:DISL:DISL:1,2014-01-01T20:30:00Z,30.2513,-88.0778,12.0,1111122 
DISL,ioos:station:DISL:DISL:1,2014-01-01T21:00:00Z,30.2513,-88.0778,12.07,1111122 
DISL,ioos:station:DISL:DISL:1,2014-01-01T21:30:00Z,30.2513,-88.0778,12.31,1111122 
DISL,ioos:station:DISL:DISL:1,2014-01-01T22:00:00Z,30.2513,-88.0778,12.62,1111122 
DISL,ioos:station:DISL:DISL:1,2014-01-01T22:30:00Z,30.2513,-88.0778,13.2,1111122 
DISL,ioos:station:DISL:DISL:1,2014-01-01T23:00:00Z,30.2513,-88.0778,13.46,1111122 
DISL,ioos:station:DISL:DISL:1,2014-01-01T23:30:00Z,30.2513,-88.0778,12.57,1111122 
DISL,ioos:station:DISL:DISL:1,2014-01-02T00:00:00Z,30.2513,-88.0778,12.96,1111122 
DISL,ioos:station:DISL:DISL:1,2014-01-02T00:30:00Z,30.2513,-88.0778,12.38,1111122 
DISL,ioos:station:DISL:DISL:1,2014-01-02T01:00:00Z,30.2513,-88.0778,12.24,1111122 
DISL,ioos:station:DISL:DISL:1,2014-01-02T01:30:00Z,30.2513,-88.0778,12.41,1111122 
DISL,ioos:station:DISL:DISL:1,2014-01-02T02:00:00Z,30.2513,-88.0778,12.69,1111122 
DISL,ioos:station:DISL:DISL:1,2014-01-02T02:30:00Z,30.2513,-88.0778,12.72,1111122 
DISL,ioos:station:DISL:DISL:1,2014-01-02T03:00:00Z,30.2513,-88.0778,12.41,1111122 
DISL,ioos:station:DISL:DISL:1,2014-01-02T03:30:00Z,30.2513,-88.0778,12.48,1111122 
DISL,ioos:station:DISL:DISL:1,2014-01-02T04:00:00Z,30.2513,-88.0778,12.21,1111122 
DISL,ioos:station:DISL:DISL:1,2014-01-02T04:30:00Z,30.2513,-88.0778,12.14,1111122 
DISL,ioos:station:DISL:DISL:1,2014-01-02T05:00:00Z,30.2513,-88.0778,12.28,1111122 
DISL,ioos:station:DISL:DISL:1,2014-01-02T05:30:00Z,30.2513,-88.0778,13.2,1111122 
DISL,ioos:station:DISL:DISL:1,2014-01-02T06:00:00Z,30.2513,-88.0778,11.93,1111122 
DISL,ioos:station:DISL:DISL:1,2014-01-02T06:30:00Z,30.2513,-88.0778,11.8,1111122 
DISL,ioos:station:DISL:DISL:1,2014-01-02T07:00:00Z,30.2513,-88.0778,11.66,1111122 
DISL,ioos:station:DISL:DISL:1,2014-01-02T07:30:00Z,30.2513,-88.0778,11.59,1111122 
DISL,ioos:station:DISL:DISL:1,2014-01-02T08:00:00Z,30.2513,-88.0778,11.93,1111122 
DISL,ioos:station:DISL:DISL:1,2014-01-02T08:30:00Z,30.2513,-88.0778,11.9,1111122 
DISL,ioos:station:DISL:DISL:1,2014-01-02T09:00:00Z,30.2513,-88.0778,12.04,1111122 
DISL,ioos:station:DISL:DISL:1,2014-01-02T09:30:00Z,30.2513,-88.0778,12.52,1111122 
DISL,ioos:station:DISL:DISL:1,2014-01-02T10:00:00Z,30.2513,-88.0778,12.48,1111122 
DISL,ioos:station:DISL:DISL:1,2014-01-02T10:30:00Z,30.2513,-88.0778,11.93,1111122 
DISL,ioos:station:DISL:DISL:1,2014-01-02T11:00:00Z,30.2513,-88.0778,12.14,1111122 
DISL,ioos:station:DISL:DISL:1,2014-01-02T11:30:00Z,30.2513,-88.0778,12.0,1111122 
DISL,ioos:station:DISL:DISL:1,2014-01-02T12:00:00Z,30.2513,-88.0778,12.04,1111122 
DISL,ioos:station:DISL:DISL:1,2014-01-02T12:30:00Z,30.2513,-88.0778,12.0,1111122 
DISL,ioos:station:DISL:DISL:1,2014-01-02T13:00:00Z,30.2513,-88.0778,12.14,1111122 
DISL,ioos:station:DISL:DISL:1,2014-01-02T13:30:00Z,30.2513,-88.0778,12.93,1111122 
DISL,ioos:station:DISL:DISL:1,2014-01-02T14:00:00Z,30.2513,-88.0778,13.27,1111122 
DISL,ioos:station:DISL:DISL:1,2014-01-02T14:30:00Z,30.2513,-88.0778,13.34,1111122 
DISL,ioos:station:DISL:DISL:1,2014-01-02T15:00:00Z,30.2513,-88.0778,13.3,1111122 
DISL,ioos:station:DISL:DISL:1,2014-01-02T15:30:00Z,30.2513,-88.0778,13.47,1111122 
DISL,ioos:station:DISL:DISL:1,2014-01-02T16:00:00Z,30.2513,-88.0778,13.26,1111122 
DISL,ioos:station:DISL:DISL:1,2014-01-02T16:30:00Z,30.2513,-88.0778,13.53,1111122 
DISL,ioos:station:DISL:DISL:1,2014-01-02T17:00:00Z,30.2513,-88.0778,13.94,1111122 
DISL,ioos:station:DISL:DISL:1,2014-01-02T17:30:00Z,30.2513,-88.0778,13.84,1111122 
DISL,ioos:station:DISL:DISL:1,2014-01-02T18:00:00Z,30.2513,-88.0778,13.7,1111122 
DISL,ioos:station:DISL:DISL:1,2014-01-02T18:30:00Z,30.2513,-88.0778,13.7,1111122 
DISL,ioos:station:DISL:DISL:1,2014-01-02T19:00:00Z,30.2513,-88.0778,13.91,1111122 
DISL,ioos:station:DISL:DISL:1,2014-01-02T19:30:00Z,30.2513,-88.0778,13.67,1111122 
DISL,ioos:station:DISL:DISL:1,2014-01-02T20:00:00Z,30.2513,-88.0778,13.42,1111122 
DISL,ioos:station:DISL:DISL:1,2014-01-02T20:30:00Z,30.2513,-88.0778,12.91,1111122 
DISL,ioos:station:DISL:DISL:1,2014-01-02T21:00:00Z,30.2513,-88.0778,12.43,1111122 
DISL,ioos:station:DISL:DISL:1,2014-01-02T21:30:00Z,30.2513,-88.0778,11.79,1111122 
DISL,ioos:station:DISL:DISL:1,2014-01-02T22:00:00Z,30.2513,-88.0778,11.42,1111122 
DISL,ioos:station:DISL:DISL:1,2014-01-02T22:30:00Z,30.2513,-88.0778,11.04,1111122 
DISL,ioos:station:DISL:DISL:1,2014-01-02T23:00:00Z,30.2513,-88.0778,10.13,1111122 
DISL,ioos:station:DISL:DISL:1,2014-01-02T23:30:00Z,30.2513,-88.0778,9.34,1111122 
DISL,ioos:station:DISL:DISL:1,2014-01-03T00:00:00Z,30.2513,-88.0778,8.7,1111122 
DISL,ioos:station:DISL:DISL:1,2014-01-03T00:30:00Z,30.2513,-88.0778,8.15,1111122 
DISL,ioos:station:DISL:DISL:1,2014-01-03T01:00:00Z,30.2513,-88.0778,8.06,1111122 
DISL,ioos:station:DISL:DISL:1,2014-01-03T01:30:00Z,30.2513,-88.0778,7.647,1111122 
DISL,ioos:station:DISL:DISL:1,2014-01-03T02:00:00Z,30.2513,-88.0778,7.275,1111122 
DISL,ioos:station:DISL:DISL:1,2014-01-03T02:30:00Z,30.2513,-88.0778,6.691,1111122 
DISL,ioos:station:DISL:DISL:1,2014-01-03T03:00:00Z,30.2513,-88.0778,6.348,1111122 
DISL,ioos:station:DISL:DISL:1,2014-01-03T03:30:00Z,30.2513,-88.0778,5.834,1111122 
DISL,ioos:station:DISL:DISL:1,2014-01-03T04:00:00Z,30.2513,-88.0778,5.432,1111122 
DISL,ioos:station:DISL:DISL:1,2014-01-03T04:30:00Z,30.2513,-88.0778,4.884,1111122 
DISL,ioos:station:DISL:DISL:1,2014-01-03T05:00:00Z,30.2513,-88.0778,4.302,1111122 
DISL,ioos:station:DISL:DISL:1,2014-01-03T05:30:00Z,30.2513,-88.0778,3.893,1111122 
DISL,ioos:station:DISL:DISL:1,2014-01-03T06:00:00Z,30.2513,-88.0778,3.626,1111122 
DISL,ioos:station:DISL:DISL:1,2014-01-03T06:30:00Z,30.2513,-88.0778,3.179,1111122 
DISL,ioos:station:DISL:DISL:1,2014-01-03T07:00:00Z,30.2513,-88.0778,2.801,1111122 
DISL,ioos:station:DISL:DISL:1,2014-01-03T07:30:00Z,30.2513,-88.0778,2.084,1111122 
DISL,ioos:station:DISL:DISL:1,2014-01-03T08:00:00Z,30.2513,-88.0778,1.953,1111122 
DISL,ioos:station:DISL:DISL:1,2014-01-03T08:30:00Z,30.2513,-88.0778,1.404,1111122 
DISL,ioos:station:DISL:DISL:1,2014-01-03T09:00:00Z,30.2513,-88.0778,1.508,1111122 
DISL,ioos:station:DISL:DISL:1,2014-01-03T09:30:00Z,30.2513,-88.0778,1.342,1111122 
DISL,ioos:station:DISL:DISL:1,2014-01-03T10:00:00Z,30.2513,-88.0778,0.964,1111122 
DISL,ioos:station:DISL:DISL:1,2014-01-03T10:30:00Z,30.2513,-88.0778,0.516,1111122 
DISL,ioos:station:DISL:DISL:1,2014-01-03T11:00:00Z,30.2513,-88.0778,0.487,1111122 
DISL,ioos:station:DISL:DISL:1,2014-01-03T11:30:00Z,30.2513,-88.0778,0.351,1111122 
DISL,ioos:station:DISL:DISL:1,2014-01-03T12:00:00Z,30.2513,-88.0778,0.179,1111122 
DISL,ioos:station:DISL:DISL:1,2014-01-03T12:30:00Z,30.2513,-88.0778,0.213,1111122 
DISL,ioos:station:DISL:DISL:1,2014-01-03T13:00:00Z,30.2513,-88.0778,0.248,1111122 
DISL,ioos:station:DISL:DISL:1,2014-01-03T13:30:00Z,30.2513,-88.0778,0.145,1111122 
DISL,ioos:station:DISL:DISL:1,2014-01-03T14:00:00Z,30.2513,-88.0778,0.107,1111122 
DISL,ioos:station:DISL:DISL:1,2014-01-03T14:30:00Z,30.2513,-88.0778,0.276,1111122 
DISL,ioos:station:DISL:DISL:1,2014-01-03T15:00:00Z,30.2513,-88.0778,0.445,1111122 
DISL,ioos:station:DISL:DISL:1,2014-01-03T16:00:00Z,30.2513,-88.0778,0.407,1111122 
DISL,ioos:station:DISL:DISL:1,2014-01-03T16:30:00Z,30.2513,-88.0778,0.957,1111122 
DISL,ioos:station:DISL:DISL:1,2014-01-03T17:00:00Z,30.2513,-88.0778,1.232,1111122 
DISL,ioos:station:DISL:DISL:1,2014-01-03T17:30:00Z,30.2513,-88.0778,1.675,1111122 
DISL,ioos:station:DISL:DISL:1,2014-01-03T18:00:00Z,30.2513,-88.0778,2.047,1111122 
DISL,ioos:station:DISL:DISL:1,2014-01-03T18:30:00Z,30.2513,-88.0778,2.491,1111122 
DISL,ioos:station:DISL:DISL:1,2014-01-03T19:00:00Z,30.2513,-88.0778,3.282,1111122 
DISL,ioos:station:DISL:DISL:1,2014-01-03T19:30:00Z,30.2513,-88.0778,3.478,1111122 
DISL,ioos:station:DISL:DISL:1,2014-01-03T20:00:00Z,30.2513,-88.0778,3.957,1111122 
DISL,ioos:station:DISL:DISL:1,2014-01-03T20:30:00Z,30.2513,-88.0778,4.334,1111122 
DISL,ioos:station:DISL:DISL:1,2014-01-03T21:00:00Z,30.2513,-88.0778,4.984,1111122 
DISL,ioos:station:DISL:DISL:1,2014-01-03T21:30:00Z,30.2513,-88.0778,5.22,1111122 
DISL,ioos:station:DISL:DISL:1,2014-01-03T22:00:00Z,30.2513,-88.0778,5.252,1111122 
DISL,ioos:station:DISL:DISL:1,2014-01-03T22:30:00Z,30.2513,-88.0778,5.666,1111122 
DISL,ioos:station:DISL:DISL:1,2014-01-03T23:00:00Z,30.2513,-88.0778,5.432,1111122 
DISL,ioos:station:DISL:DISL:1,2014-01-03T23:30:00Z,30.2513,-88.0778,5.469,1111122 
DISL,ioos:station:DISL:DISL:1,2014-01-04T00:00:00Z,30.2513,-88.0778,5.504,1111122 
DISL,ioos:station:DISL:DISL:1,2014-01-04T00:30:00Z,30.2513,-88.0778,5.368,1111122 
DISL,ioos:station:DISL:DISL:1,2014-01-04T01:00:00Z,30.2513,-88.0778,5.201,1111122 
DISL,ioos:station:DISL:DISL:1,2014-01-04T01:30:00Z,30.2513,-88.0778,4.929,1111122 
DISL,ioos:station:DISL:DISL:1,2014-01-04T02:00:00Z,30.2513,-88.0778,4.83,1111122 
DISL,ioos:station:DISL:DISL:1,2014-01-04T02:30:00Z,30.2513,-88.0778,4.624,1111122 
DISL,ioos:station:DISL:DISL:1,2014-01-04T03:00:00Z,30.2513,-88.0778,4.555,1111122 
DISL,ioos:station:DISL:DISL:1,2014-01-04T03:30:00Z,30.2513,-88.0778,4.521,1111122 
DISL,ioos:station:DISL:DISL:1,2014-01-04T04:00:00Z,30.2513,-88.0778,4.486,1111122 
DISL,ioos:station:DISL:DISL:1,2014-01-04T04:30:00Z,30.2513,-88.0778,4.796,1111122 
DISL,ioos:station:DISL:DISL:1,2014-01-04T05:00:00Z,30.2513,-88.0778,4.727,1111122 
DISL,ioos:station:DISL:DISL:1,2014-01-04T05:30:00Z,30.2513,-88.0778,4.693,1111122 
DISL,ioos:station:DISL:DISL:1,2014-01-04T06:00:00Z,30.2513,-88.0778,4.521,1111122 
DISL,ioos:station:DISL:DISL:1,2014-01-04T06:30:00Z,30.2513,-88.0778,4.555,1111122 
DISL,ioos:station:DISL:DISL:1,2014-01-04T07:00:00Z,30.2513,-88.0778,4.521,1111122 
DISL,ioos:station:DISL:DISL:1,2014-01-04T07:30:00Z,30.2513,-88.0778,4.349,1111122 
DISL,ioos:station:DISL:DISL:1,2014-01-04T08:00:00Z,30.2513,-88.0778,4.383,1111122 
DISL,ioos:station:DISL:DISL:1,2014-01-04T08:30:00Z,30.2513,-88.0778,4.794,1111122 
DISL,ioos:station:DISL:DISL:1,2014-01-04T09:00:00Z,30.2513,-88.0778,4.722,1111122 
DISL,ioos:station:DISL:DISL:1,2014-01-04T09:30:00Z,30.2513,-88.0778,4.824,1111122 
DISL,ioos:station:DISL:DISL:1,2014-01-04T10:00:00Z,30.2513,-88.0778,4.789,1111122 
DISL,ioos:station:DISL:DISL:1,2014-01-04T10:30:00Z,30.2513,-88.0778,4.653,1111122 
DISL,ioos:station:DISL:DISL:1,2014-01-04T11:00:00Z,30.2513,-88.0778,4.689,1111122 
DISL,ioos:station:DISL:DISL:1,2014-01-04T11:30:00Z,30.2513,-88.0778,4.756,1111122 
DISL,ioos:station:DISL:DISL:1,2014-01-04T12:00:00Z,30.2513,-88.0778,4.926,1111122 
DISL,ioos:station:DISL:DISL:1,2014-01-04T12:30:00Z,30.2513,-88.0778,4.787,1111122 
DISL,ioos:station:DISL:DISL:1,2014-01-04T13:00:00Z,30.2513,-88.0778,4.922,1111122 
DISL,ioos:station:DISL:DISL:1,2014-01-04T13:30:00Z,30.2513,-88.0778,4.988,1111122 
DISL,ioos:station:DISL:DISL:1,2014-01-04T14:00:00Z,30.2513,-88.0778,5.334,1111122 
DISL,ioos:station:DISL:DISL:1,2014-01-04T14:30:00Z,30.2513,-88.0778,5.572,1111122 
DISL,ioos:station:DISL:DISL:1,2014-01-04T15:00:00Z,30.2513,-88.0778,6.119,1111122 
DISL,ioos:station:DISL:DISL:1,2014-01-04T15:30:00Z,30.2513,-88.0778,6.554,1111122 
DISL,ioos:station:DISL:DISL:1,2014-01-04T16:00:00Z,30.2513,-88.0778,7.035,1111122 
DISL,ioos:station:DISL:DISL:1,2014-01-04T16:30:00Z,30.2513,-88.0778,7.818,1111122 
DISL,ioos:station:DISL:DISL:1,2014-01-04T17:00:00Z,30.2513,-88.0778,8.6,1111122 
DISL,ioos:station:DISL:DISL:1,2014-01-04T17:30:00Z,30.2513,-88.0778,8.93,1111122 
DISL,ioos:station:DISL:DISL:1,2014-01-04T18:00:00Z,30.2513,-88.0778,9.3,1111122 
DISL,ioos:station:DISL:DISL:1,2014-01-04T18:30:00Z,30.2513,-88.0778,10.02,1111122 
DISL,ioos:station:DISL:DISL:1,2014-01-04T19:00:00Z,30.2513,-88.0778,9.94,1111122 
DISL,ioos:station:DISL:DISL:1,2014-01-04T19:30:00Z,30.2513,-88.0778,10.52,1111122 
DISL,ioos:station:DISL:DISL:1,2014-01-04T20:00:00Z,30.2513,-88.0778,10.7,1111122 
DISL,ioos:station:DISL:DISL:1,2014-01-04T20:30:00Z,30.2513,-88.0778,11.13,1111122 
DISL,ioos:station:DISL:DISL:1,2014-01-04T21:00:00Z,30.2513,-88.0778,10.93,1111122 
DISL,ioos:station:DISL:DISL:1,2014-01-04T21:30:00Z,30.2513,-88.0778,10.87,1111122 
DISL,ioos:station:DISL:DISL:1,2014-01-04T22:00:00Z,30.2513,-88.0778,10.77,1111122 
DISL,ioos:station:DISL:DISL:1,2014-01-04T22:30:00Z,30.2513,-88.0778,10.98,1111122 
DISL,ioos:station:DISL:DISL:1,2014-01-04T23:00:00Z,30.2513,-88.0778,11.13,1111122 
DISL,ioos:station:DISL:DISL:1,2014-01-04T23:30:00Z,30.2513,-88.0778,10.95,1111122 
DISL,ioos:station:DISL:DISL:1,2014-01-05T00:00:00Z,30.2513,-88.0778,11.09,1111122 
DISL,ioos:station:DISL:DISL:1,2014-01-05T00:30:00Z,30.2513,-88.0778,11.3,1111122 
DISL,ioos:station:DISL:DISL:1,2014-01-05T01:00:00Z,30.2513,-88.0778,11.13,1111122 
DISL,ioos:station:DISL:DISL:1,2014-01-05T01:30:00Z,30.2513,-88.0778,10.88,1111122 
DISL,ioos:station:DISL:DISL:1,2014-01-05T02:00:00Z,30.2513,-88.0778,10.82,1111122 
DISL,ioos:station:DISL:DISL:1,2014-01-05T02:30:00Z,30.2513,-88.0778,11.06,1111122 
DISL,ioos:station:DISL:DISL:1,2014-01-05T03:00:00Z,30.2513,-88.0778,11.19,1111122 
DISL,ioos:station:DISL:DISL:1,2014-01-05T03:30:00Z,30.2513,-88.0778,11.5,1111122 
DISL,ioos:station:DISL:DISL:1,2014-01-05T04:00:00Z,30.2513,-88.0778,11.4,1111122 
DISL,ioos:station:DISL:DISL:1,2014-01-05T04:30:00Z,30.2513,-88.0778,11.47,1111122 
DISL,ioos:station:DISL:DISL:1,2014-01-05T05:00:00Z,30.2513,-88.0778,10.92,1111122 
DISL,ioos:station:DISL:DISL:1,2014-01-05T05:30:00Z,30.2513,-88.0778,10.68,1111122 
DISL,ioos:station:DISL:DISL:1,2014-01-05T06:00:00Z,30.2513,-88.0778,10.23,1111122 
DISL,ioos:station:DISL:DISL:1,2014-01-05T06:30:00Z,30.2513,-88.0778,10.23,1111122 
DISL,ioos:station:DISL:DISL:1,2014-01-05T07:00:00Z,30.2513,-88.0778,10.37,1111122 
DISL,ioos:station:DISL:DISL:1,2014-01-05T07:30:00Z,30.2513,-88.0778,10.3,1111122 
DISL,ioos:station:DISL:DISL:1,2014-01-05T08:00:00Z,30.2513,-88.0778,10.13,1111122 
DISL,ioos:station:DISL:DISL:1,2014-01-05T08:30:00Z,30.2513,-88.0778,9.99,1111122 
DISL,ioos:station:DISL:DISL:1,2014-01-05T09:00:00Z,30.2513,-88.0778,9.99,1111122 
DISL,ioos:station:DISL:DISL:1,2014-01-05T09:30:00Z,30.2513,-88.0778,9.99,1111122 
DISL,ioos:station:DISL:DISL:1,2014-01-05T10:00:00Z,30.2513,-88.0778,9.92,1111122 
DISL,ioos:station:DISL:DISL:1,2014-01-05T10:30:00Z,30.2513,-88.0778,10.54,1111122 
DISL,ioos:station:DISL:DISL:1,2014-01-05T11:00:00Z,30.2513,-88.0778,10.37,1111122 
DISL,ioos:station:DISL:DISL:1,2014-01-05T11:30:00Z,30.2513,-88.0778,10.34,1111122 
DISL,ioos:station:DISL:DISL:1,2014-01-05T12:00:00Z,30.2513,-88.0778,10.23,1111122 
DISL,ioos:station:DISL:DISL:1,2014-01-05T12:30:00Z,30.2513,-88.0778,10.06,1111122 
DISL,ioos:station:DISL:DISL:1,2014-01-05T13:00:00Z,30.2513,-88.0778,9.89,1111122 
DISL,ioos:station:DISL:DISL:1,2014-01-05T13:30:00Z,30.2513,-88.0778,10.37,1111122 
DISL,ioos:station:DISL:DISL:1,2014-01-05T14:00:00Z,30.2513,-88.0778,11.02,1111122 
DISL,ioos:station:DISL:DISL:1,2014-01-05T14:30:00Z,30.2513,-88.0778,10.68,1111122 
DISL,ioos:station:DISL:DISL:1,2014-01-05T15:00:00Z,30.2513,-88.0778,10.42,1111122 
DISL,ioos:station:DISL:DISL:1,2014-01-05T15:30:00Z,30.2513,-88.0778,10.7,1111122 
DISL,ioos:station:DISL:DISL:1,2014-01-05T16:00:00Z,30.2513,-88.0778,10.93,1111122 
DISL,ioos:station:DISL:DISL:1,2014-01-05T16:30:00Z,30.2513,-88.0778,11.88,1111122 
DISL,ioos:station:DISL:DISL:1,2014-01-05T17:00:00Z,30.2513,-88.0778,12.87,1111122 
DISL,ioos:station:DISL:DISL:1,2014-01-05T17:30:00Z,30.2513,-88.0778,11.52,1111122 
DISL,ioos:station:DISL:DISL:1,2014-01-05T18:00:00Z,30.2513,-88.0778,11.49,1111122 
DISL,ioos:station:DISL:DISL:1,2014-01-05T18:30:00Z,30.2513,-88.0778,12.29,1111122 
DISL,ioos:station:DISL:DISL:1,2014-01-05T19:00:00Z,30.2513,-88.0778,12.94,1111122 
DISL,ioos:station:DISL:DISL:1,2014-01-05T19:30:00Z,30.2513,-88.0778,14.08,1111122 
DISL,ioos:station:DISL:DISL:1,2014-01-05T20:00:00Z,30.2513,-88.0778,13.77,1111122 
DISL,ioos:station:DISL:DISL:1,2014-01-05T20:30:00Z,30.2513,-88.0778,14.21,1111122 
DISL,ioos:station:DISL:DISL:1,2014-01-05T21:00:00Z,30.2513,-88.0778,14.21,1111122 
DISL,ioos:station:DISL:DISL:1,2014-01-05T21:30:00Z,30.2513,-88.0778,13.84,1111122 
DISL,ioos:station:DISL:DISL:1,2014-01-05T22:00:00Z,30.2513,-88.0778,15.0,1111122 
DISL,ioos:station:DISL:DISL:1,2014-01-05T22:30:00Z,30.2513,-88.0778,15.21,1111122 
DISL,ioos:station:DISL:DISL:1,2014-01-05T23:00:00Z,30.2513,-88.0778,15.17,1111122 
DISL,ioos:station:DISL:DISL:1,2014-01-05T23:30:00Z,30.2513,-88.0778,15.34,1111122 
DISL,ioos:station:DISL:DISL:1,2014-01-06T00:00:00Z,30.2513,-88.0778,15.41,1111122 
DISL,ioos:station:DISL:DISL:1,2014-01-06T00:30:00Z,30.2513,-88.0778,15.82,1111122 
DISL,ioos:station:DISL:DISL:1,2014-01-06T01:00:00Z,30.2513,-88.0778,15.58,1111122 
DISL,ioos:station:DISL:DISL:1,2014-01-06T01:30:00Z,30.2513,-88.0778,15.72,1111122 
DISL,ioos:station:DISL:DISL:1,2014-01-06T02:00:00Z,30.2513,-88.0778,15.44,1111122 
DISL,ioos:station:DISL:DISL:1,2014-01-06T02:30:00Z,30.2513,-88.0778,15.68,1111122 
DISL,ioos:station:DISL:DISL:1,2014-01-06T03:00:00Z,30.2513,-88.0778,16.26,1111122 
DISL,ioos:station:DISL:DISL:1,2014-01-06T03:30:00Z,30.2513,-88.0778,15.19,1111122 
DISL,ioos:station:DISL:DISL:1,2014-01-06T04:00:00Z,30.2513,-88.0778,12.97,1111122 
DISL,ioos:station:DISL:DISL:1,2014-01-06T04:30:00Z,30.2513,-88.0778,11.64,1111122 
DISL,ioos:station:DISL:DISL:1,2014-01-06T05:00:00Z,30.2513,-88.0778,10.35,1111122 
DISL,ioos:station:DISL:DISL:1,2014-01-06T05:30:00Z,30.2513,-88.0778,9.3,1111122 
DISL,ioos:station:DISL:DISL:1,2014-01-06T06:00:00Z,30.2513,-88.0778,8.03,1111122 
DISL,ioos:station:DISL:DISL:1,2014-01-06T06:30:00Z,30.2513,-88.0778,7.566,1111122 
DISL,ioos:station:DISL:DISL:1,2014-01-06T07:00:00Z,30.2513,-88.0778,6.955,1111122 
DISL,ioos:station:DISL:DISL:1,2014-01-06T07:30:00Z,30.2513,-88.0778,5.588,1111122 
DISL,ioos:station:DISL:DISL:1,2014-01-06T08:00:00Z,30.2513,-88.0778,4.318,1111122 
DISL,ioos:station:DISL:DISL:1,2014-01-06T08:30:00Z,30.2513,-88.0778,4.057,1111122 
DISL,ioos:station:DISL:DISL:1,2014-01-06T09:00:00Z,30.2513,-88.0778,3.305,1111122 
DISL,ioos:station:DISL:DISL:1,2014-01-06T09:30:00Z,30.2513,-88.0778,2.281,1111122 
DISL,ioos:station:DISL:DISL:1,2014-01-06T10:00:00Z,30.2513,-88.0778,1.768,1111122 
DISL,ioos:station:DISL:DISL:1,2014-01-06T10:30:00Z,30.2513,-88.0778,1.739,1111122 
DISL,ioos:station:DISL:DISL:1,2014-01-06T11:00:00Z,30.2513,-88.0778,1.334,1111122 
DISL,ioos:station:DISL:DISL:1,2014-01-06T11:30:00Z,30.2513,-88.0778,0.957,1111122 
DISL,ioos:station:DISL:DISL:1,2014-01-06T12:00:00Z,30.2513,-88.0778,0.991,1111122 
DISL,ioos:station:DISL:DISL:1,2014-01-06T16:00:00Z,30.2513,-88.0778,0.31,1111122 
DISL,ioos:station:DISL:DISL:1,2014-01-06T16:30:00Z,30.2513,-88.0778,0.653,1111122 
DISL,ioos:station:DISL:DISL:1,2014-01-06T17:00:00Z,30.2513,-88.0778,1.2,1111122 
DISL,ioos:station:DISL:DISL:1,2014-01-06T17:30:00Z,30.2513,-88.0778,1.714,1111122 
DISL,ioos:station:DISL:DISL:1,2014-01-06T18:00:00Z,30.2513,-88.0778,2.326,1111122 
DISL,ioos:station:DISL:DISL:1,2014-01-06T18:30:00Z,30.2513,-88.0778,1.734,1111122 
DISL,ioos:station:DISL:DISL:1,2014-01-06T19:00:00Z,30.2513,-88.0778,1.803,1111122 
DISL,ioos:station:DISL:DISL:1,2014-01-06T19:30:00Z,30.2513,-88.0778,2.044,1111122 
DISL,ioos:station:DISL:DISL:1,2014-01-06T20:00:00Z,30.2513,-88.0778,2.113,1111122 
DISL,ioos:station:DISL:DISL:1,2014-01-06T20:30:00Z,30.2513,-88.0778,2.25,1111122 
DISL,ioos:station:DISL:DISL:1,2014-01-06T21:00:00Z,30.2513,-88.0778,1.906,1111122 
DISL,ioos:station:DISL:DISL:1,2014-01-06T21:30:00Z,30.2513,-88.0778,1.734,1111122 
DISL,ioos:station:DISL:DISL:1,2014-01-06T22:00:00Z,30.2513,-88.0778,1.459,1111122 
DISL,ioos:station:DISL:DISL:1,2014-01-06T22:30:00Z,30.2513,-88.0778,1.053,1111122 
DISL,ioos:station:DISL:DISL:1,2014-01-06T23:00:00Z,30.2513,-88.0778,0.511,1111122 
DISL,ioos:station:DISL:DISL:1,2014-01-06T23:30:00Z,30.2513,-88.0778,0.103,1111122 
DISL,ioos:station:DISL:DISL:1,2014-01-07T23:00:00Z,30.2513,-88.0778,0.248,1111122 
DISL,ioos:station:DISL:DISL:1,2014-01-07T23:30:00Z,30.2513,-88.0778,0.351,1111122 
DISL,ioos:station:DISL:DISL:1,2014-01-08T00:00:00Z,30.2513,-88.0778,0.42,1111122 
DISL,ioos:station:DISL:DISL:1,2014-01-08T00:30:00Z,30.2513,-88.0778,0.455,1111122 
DISL,ioos:station:DISL:DISL:1,2014-01-08T01:00:00Z,30.2513,-88.0778,0.386,1111122 
DISL,ioos:station:DISL:DISL:1,2014-01-08T01:30:00Z,30.2513,-88.0778,0.043,1111122 
DISL,ioos:station:DISL:DISL:1,2014-01-08T02:00:00Z,30.2513,-88.0778,0.013,1111122 
DISL,ioos:station:DISL:DISL:1,2014-01-08T17:00:00Z,30.2513,-88.0778,0.165,1111122 
DISL,ioos:station:DISL:DISL:1,2014-01-08T17:30:00Z,30.2513,-88.0778,0.747,1111122 
DISL,ioos:station:DISL:DISL:1,2014-01-08T18:00:00Z,30.2513,-88.0778,1.082,1111122 
DISL,ioos:station:DISL:DISL:1,2014-01-08T18:30:00Z,30.2513,-88.0778,1.7,1111122 
DISL,ioos:station:DISL:DISL:1,2014-01-08T19:00:00Z,30.2513,-88.0778,2.411,1111122 
DISL,ioos:station:DISL:DISL:1,2014-01-08T19:30:00Z,30.2513,-88.0778,2.777,1111122 
DISL,ioos:station:DISL:DISL:1,2014-01-08T20:00:00Z,30.2513,-88.0778,2.428,1111122 
DISL,ioos:station:DISL:DISL:1,2014-01-08T20:30:00Z,30.2513,-88.0778,2.878,1111122 
DISL,ioos:station:DISL:DISL:1,2014-01-08T21:00:00Z,30.2513,-88.0778,3.495,1111122 
DISL,ioos:station:DISL:DISL:1,2014-01-08T21:30:00Z,30.2513,-88.0778,4.215,1111122 
DISL,ioos:station:DISL:DISL:1,2014-01-08T22:00:00Z,30.2513,-88.0778,4.765,1111122 
DISL,ioos:station:DISL:DISL:1,2014-01-08T22:30:00Z,30.2513,-88.0778,5.109,1111122 
DISL,ioos:station:DISL:DISL:1,2014-01-08T23:00:00Z,30.2513,-88.0778,5.148,1111122 
DISL,ioos:station:DISL:DISL:1,2014-01-08T23:30:00Z,30.2513,-88.0778,5.228,1111122 
DISL,ioos:station:DISL:DISL:1,2014-01-09T00:00:00Z,30.2513,-88.0778,5.579,1111122 